This is the latest recevied weather packets stored in our database for station/object JA3VQW-13. If no packets are shown the sender has not sent any weather packets the latest 10 day(s).
| Time | Temp. | Humidity | Pressure | Rain* | Wind** | Luminosity | Snow |
|---|---|---|---|---|---|---|---|
| 1777837291 | 17.22° C | 93% | 993 hPa | 3.05 mm | - | - | - |
| 1777836977 | 17.22° C | 93% | 993 hPa | 5.33 mm | - | - | - |
| 1777836390 | 17.22° C | 95% | 993 hPa | 7.37 mm | - | - | - |
| 1777835490 | 17.22° C | 96% | 993 hPa | 7.37 mm | - | - | - |
| 1777835177 | 17.22° C | 96% | 993 hPa | 7.37 mm | - | - | - |
| 1777834589 | 17.22° C | 97% | 993 hPa | 11.68 mm | - | - | - |
| 1777833692 | 17.78° C | 97% | 993 hPa | 13.97 mm | - | - | - |
| 1777833376 | 17.78° C | 97% | 993 hPa | 13.72 mm | - | - | - |
| 1777832790 | 17.78° C | 98% | 993 hPa | 14.73 mm | - | - | - |
| 1777831891 | 17.78° C | 98% | 993 hPa | 18.03 mm | - | - | - |
| 1777831576 | 18.33° C | 98% | 992 hPa | 19.05 mm | - | - | - |
| 1777830991 | 18.33° C | 98% | 992 hPa | 19.05 mm | - | - | - |
| 1777830091 | 18.89° C | 98% | 992 hPa | 14.73 mm | - | - | - |
| 1777829776 | 18.89° C | 98% | 992 hPa | 12.7 mm | - | - | - |
| 1777829190 | 18.89° C | 98% | 992 hPa | 9.65 mm | - | - | - |
| 1777828290 | 19.44° C | 98% | 992 hPa | 5.33 mm | - | - | - |
| 1777827976 | 20° C | 98% | 991 hPa | 4.32 mm | - | - | - |
| 1777827390 | 20° C | 98% | 991 hPa | 0 mm | - | - | - |
| 1777826491 | 20° C | 98% | 991 hPa | 0 mm | - | - | - |
| 1777826177 | 20° C | 98% | 991 hPa | 0 mm | - | - | - |
| 1777825590 | 20° C | 98% | 991 hPa | 0 mm | - | - | - |
| 1777824690 | 20.56° C | 98% | 991 hPa | 1.02 mm | - | - | - |
| 1777824377 | 20.56° C | 98% | 991 hPa | 1.02 mm | - | - | - |
| 1777823790 | 20.56° C | 98% | 991 hPa | 0 mm | - | - | - |
| 1777822890 | 20° C | 98% | 991 hPa | 0 mm | - | - | - |
* Rain latest hour (hover to see other rain measurements)
** Current wind speed in m/s (hover to see current wind gust speed)